McCall, ID

12:25 AM MDT on August 20, 2017 (GMT -0600)
McCall

Weather History for KMYL - May, 2013

Change the Weather History Date:

Tuesday, May 28, 2013

  Actual Average Record
Temperature  
Mean Temperature 46 °F 49 °F  
Max Temperature 53 °F 62 °F 88 °F (1928)
Min Temperature 39 °F 35 °F 24 °F (1991)
Degree Days  
Heating Degree Days 19 16  
Month to date heating degree days 421 546  
Since 1 July heating degree days 8312 9181  
Cooling Degree Days 0 0  
Month to date cooling degree days 0 0  
Year to date cooling degree days 0 0  
Moisture  
Dew Point 41 °F    
Average Humidity 84    
Maximum Humidity 96    
Minimum Humidity 71    
Precipitation  
Precipitation 0.38 in 0.07 in 0.80 in (2004)
Month to date precipitation 1.45 1.98  
Year to date precipitation 9.07 9.57  
Sea Level Pressure  
Sea Level Pressure 29.81 in    
Wind  
Wind Speed 4 mph (WNW)    
Max Wind Speed 14 mph    
Max Gust Speed 20 mph    
Visibility 9 miles    
Events Rain    
T = Trace of Precipitation, MM = Missing Value Source: NWS Daily Summary

Daily Weather History Graph

Daily Weather History Graph

Search for Another Location

Airport or City:

Trip Planner

Search our weather history database for the weather conditions in past years. The results will help you decide how hot, cold, wet, or windy it might be!

Date:

Astronomy

May. 28, 2013 Rise Set
Actual Time 6:03 AM MDT 9:20 PM MDT
Civil Twilight 5:27 AM MDT 9:56 PM MDT
Nautical Twilight 4:41 AM MDT 10:43 PM MDT
Astronomical Twilight 3:43 AM MDT 11:41 PM MDT
Moon No Moon Rise 10:01 AM MDT (5/28)
Length of Visible Light 16h 28m
Length of Day
15h 16m
Waning Gibbous, 82% of the Moon is Illuminated
May 28
Waning Gibbous
May 31
Last Quarter
Jun 8
New
Jun 16
First Quarter
Jun 23
Full

Hourly Weather History & Observations

Time (MDT) Temp. Windchill Dew Point Humidity Pressure Visibility Wind Dir Wind Speed Gust Speed Precip Events Conditions
12:14 AM 44.6 °F - 41.0 °F 87% 29.84 in 10.0 mi Calm Calm - N/A   Overcast
12:34 AM 44.6 °F - 41.0 °F 87% 29.83 in 10.0 mi Calm Calm - N/A   Overcast
12:51 AM 44.1 °F - 41.0 °F 89% 29.79 in 10.0 mi Calm Calm - N/A   Overcast
1:01 AM 44.6 °F - 41.0 °F 87% 29.82 in 10.0 mi Calm Calm - N/A   Overcast
1:21 AM 44.6 °F 43.1 °F 41.0 °F 87% 29.82 in 10.0 mi SE 3.5 mph - N/A   Overcast
1:51 AM 44.1 °F - 41.0 °F 89% 29.77 in 10.0 mi Calm Calm - N/A   Overcast
2:01 AM 44.6 °F - 41.0 °F 87% 29.81 in 10.0 mi Calm Calm - N/A   Overcast
2:51 AM 44.1 °F 42.5 °F 41.0 °F 89% 29.76 in 7.0 mi North 3.5 mph - 0.00 in Rain Light Rain
3:09 AM 44.6 °F - 41.0 °F 87% 29.80 in 10.0 mi Calm Calm - 0.00 in   Overcast
3:32 AM 44.6 °F 43.1 °F 41.0 °F 87% 29.80 in 7.0 mi North 3.5 mph - 0.01 in Rain Light Rain
3:51 AM 44.1 °F 42.5 °F 41.0 °F 89% 29.74 in 10.0 mi North 3.5 mph - 0.02 in Rain Light Rain
4:17 AM 42.8 °F - 41.0 °F 93% 29.79 in 10.0 mi Calm Calm - 0.00 in   Overcast
4:51 AM 43.0 °F - 42.1 °F 97% 29.75 in 10.0 mi Calm Calm - 0.00 in Rain Light Rain
5:13 AM 42.8 °F - 41.0 °F 93% 29.78 in 10.0 mi Calm Calm - 0.01 in Rain Light Rain
5:51 AM 43.0 °F - 39.9 °F 89% 29.75 in 10.0 mi Calm Calm - 0.03 in Rain Light Rain
6:51 AM 43.0 °F - 41.0 °F 93% 29.76 in 8.0 mi Calm Calm - 0.02 in Rain Light Rain
7:32 AM 42.8 °F - 39.2 °F 87% 29.79 in 4.0 mi Calm Calm - 0.04 in Rain Light Rain
7:51 AM 42.1 °F - 39.9 °F 92% 29.77 in 3.0 mi Calm Calm - 0.09 in Rain Rain
8:51 AM 42.1 °F - 39.0 °F 89% 29.78 in 7.0 mi Calm Calm - 0.10 in Rain Light Rain
9:51 AM 43.0 °F 41.3 °F 39.0 °F 86% 29.79 in 10.0 mi WSW 3.5 mph - 0.03 in Rain Light Rain
9:58 AM 42.8 °F - 37.4 °F 81% 29.81 in 10.0 mi Calm Calm - 0.01 in Rain Light Rain
10:29 AM 44.6 °F - 39.2 °F 81% 29.82 in 10.0 mi Calm Calm - 0.02 in Rain Light Rain
10:51 AM 44.1 °F 41.5 °F 39.0 °F 82% 29.80 in 10.0 mi SW 4.6 mph - 0.03 in Rain Light Rain
11:51 AM 45.0 °F - 41.0 °F 86% 29.80 in 10.0 mi Calm Calm - 0.02 in Rain Light Rain
12:13 PM 44.6 °F 40.7 °F 41.0 °F 87% 29.83 in 10.0 mi West 6.9 mph - 0.01 in Rain Light Rain
12:26 PM 44.6 °F 40.7 °F 42.8 °F 93% 29.83 in 10.0 mi West 6.9 mph - 0.02 in Rain Light Rain
12:51 PM 46.9 °F - 43.0 °F 86% 29.81 in 10.0 mi Variable 6.9 mph - 0.02 in Rain Light Rain
12:58 PM 46.4 °F 42.9 °F 42.8 °F 87% 29.84 in 10.0 mi WNW 6.9 mph - 0.00 in Rain Light Rain
1:24 PM 46.4 °F - 42.8 °F 87% 29.83 in - North - - 0.01 in   Unknown
1:51 PM - - - N/A% 29.83 in - North - - 0.01 in   Unknown
2:51 PM 48.9 °F - 43.0 °F 80% 29.80 in 10.0 mi West 12.7 mph - 0.00 in   Mostly Cloudy
3:51 PM 46.9 °F - 42.1 °F 83% 29.83 in 10.0 mi West 8.1 mph - 0.01 in   Overcast
4:51 PM 50.0 °F - 42.1 °F 74% 29.82 in 10.0 mi West 6.9 mph - 0.00 in   Overcast
5:51 PM 50.0 °F - 42.1 °F 74% 29.83 in 10.0 mi West 8.1 mph - 0.00 in   Overcast
6:51 PM 50.0 °F - 41.0 °F 71% 29.82 in 10.0 mi West 6.9 mph - 0.00 in   Mostly Cloudy
7:51 PM 50.0 °F - 41.0 °F 71% 29.82 in 10.0 mi West 6.9 mph - N/A   Overcast
8:51 PM 48.0 °F - 39.0 °F 71% 29.83 in 10.0 mi WNW 5.8 mph - N/A   Overcast
9:51 PM 46.9 °F - 41.0 °F 80% 29.85 in 10.0 mi Calm Calm - 0.00 in   Overcast
10:51 PM 44.1 °F 41.5 °F 42.1 °F 93% 29.84 in 10.0 mi ENE 4.6 mph - 0.00 in   Scattered Clouds
11:51 PM 42.1 °F - 39.9 °F 92% 29.83 in 10.0 mi Calm Calm - N/A   Clear